Weather History for Duesseldorf, Germany

Change the Weather History Date:

Wednesday, November 14, 2012

  Actual Average Record
Temperature  
Mean Temperature 44 °F -  
Max Temperature 53 °F 44 °F 59 °F (2010)
Min Temperature 36 °F 35 °F 28 °F (1996)
Degree Days  
Heating Degree Days 20    
Moisture  
Dew Point 36 °F    
Average Humidity 70    
Maximum Humidity 92    
Minimum Humidity 37    
Precipitation  
Precipitation 0.00 in - - ()
Sea Level Pressure  
Sea Level Pressure 30.38 in    
Wind  
Wind Speed 6 mph ()    
Max Wind Speed 13 mph    
Max Gust Speed -    
Visibility 10.4 miles    
Events      
Averages and records for this station are not official NWS values.
T = Trace of Precipitation, MM = Missing Value Source: Averaged Metar Reports

Daily Weather History Graph

Daily Weather History Graph

Search for Another Location

Airport:

Trip Planner

Search our weather history database for the weather conditions in past years. The results will help you decide how hot, cold, wet, or windy it might be!

Date:

Astronomy

Nov. 14, 2012 Rise Set
Actual Time 7:49 AM CET 4:45 PM CET
Civil Twilight 7:12 AM CET 5:21 PM CET
Nautical Twilight 6:31 AM CET 6:02 PM CET
Astronomical Twilight 5:52 AM CET 6:41 PM CET
Moon 8:25 AM CET (11/14) 5:11 PM CET (11/14)
Length of Visible Light 10h 09m
Length of Day
8h 56m
New Moon, 0% of the Moon is Illuminated
Nov 14
New Moon
Nov 20
First Quarter
Nov 28
Full
Dec 6
Last Quarter
Dec 13
New

Hourly Weather History & Observations

Time (CET) Temp. Windchill Dew Point Humidity Pressure Visibility Wind Dir Wind Speed Gust Speed Precip Events Conditions
12:00 AM 47 °F - 38 °F 63% 30.47 in 12 mi SE 8.9 mph - -   Mostly Cloudy
12:20 AM 48.2 °F - 37.4 °F 66% 30.45 in 6.2 mi SSE 9.2 mph - N/A   Mostly Cloudy
12:50 AM 46.4 °F 42.4 °F 35.6 °F 66% 30.45 in 6.2 mi SSE 8.1 mph - N/A   Mostly Cloudy
1:00 AM 47 °F - 37 °F 58% 30.47 in 12 mi SSE 8.9 mph - -   Mostly Cloudy
1:20 AM 46.4 °F 42.4 °F 37.4 °F 71% 30.45 in 6.2 mi SSE 8.1 mph - N/A   Mostly Cloudy
1:50 AM 46.4 °F 42.4 °F 37.4 °F 71% 30.45 in 6.2 mi SSE 8.1 mph - N/A   Mostly Cloudy
2:00 AM 46 °F - 37 °F 62% 30.47 in 12 mi SSE 8.9 mph - -   Mostly Cloudy
2:20 AM 46.4 °F 41.9 °F 35.6 °F 66% 30.45 in 6.2 mi SSE 9.2 mph - N/A   Mostly Cloudy
2:50 AM 44.6 °F 39.7 °F 35.6 °F 71% 30.45 in 6.2 mi SSE 9.2 mph - N/A   Mostly Cloudy
3:00 AM 45 °F - 37 °F 65% 30.47 in 12 mi SSE 8.9 mph - -   Mostly Cloudy
3:20 AM 44.6 °F 40.2 °F 35.6 °F 71% 30.45 in 6.2 mi SSE 8.1 mph - N/A   Mostly Cloudy
3:50 AM 44.6 °F 40.7 °F 35.6 °F 71% 30.45 in 6.2 mi SSE 6.9 mph - N/A   Mostly Cloudy
4:20 AM 44.6 °F 40.2 °F 35.6 °F 71% 30.42 in 6.2 mi SSE 8.1 mph - N/A   Mostly Cloudy
4:50 AM 42.8 °F 41.1 °F 35.6 °F 76% 30.45 in 6.2 mi SE 3.5 mph - N/A   Scattered Clouds
5:00 AM 41 °F - 36 °F 76% 30.45 in 12 mi SE 2.2 mph - -   Partly Cloudy
5:20 AM 41.0 °F 39.0 °F 35.6 °F 81% 30.42 in 6.2 mi SE 3.5 mph - N/A   Partly Cloudy
5:50 AM 39.2 °F 37.0 °F 33.8 °F 81% 30.42 in 6.2 mi SE 3.5 mph - N/A   Partly Cloudy
6:00 AM 38 °F - 35 °F 86% 30.45 in 12 mi ESE 4.5 mph - -   Scattered Clouds
6:20 AM 39.2 °F 35.9 °F 35.6 °F 87% 30.42 in - SE 4.6 mph - N/A   Clear
6:50 AM 37.4 °F 33.8 °F 33.8 °F 87% 30.42 in - SE 4.6 mph - N/A   Clear
7:00 AM 37 °F - 36 °F 92% 30.44 in 12 mi SSE 4.5 mph - -   Scattered Clouds
7:20 AM 39.2 °F 35.0 °F 33.8 °F 81% 30.42 in - SE 5.8 mph - N/A   Clear
7:50 AM 39.2 °F 35.0 °F 33.8 °F 81% 30.42 in - ESE 5.8 mph - N/A   Clear
8:00 AM 39 °F - 36 °F 84% 30.44 in 16 mi SE 6.7 mph - -   Clear
8:20 AM 39.2 °F 35.9 °F 35.6 °F 87% 30.42 in - SE 4.6 mph - N/A   Clear
8:50 AM 41.0 °F 37.1 °F 35.6 °F 81% 30.42 in - SE 5.8 mph - N/A   Clear
9:00 AM 40 °F - 36 °F 79% 30.44 in 16 mi SSE 8.9 mph - -   Clear
9:20 AM 42.8 °F 39.3 °F 35.6 °F 76% 30.42 in - SE 5.8 mph - N/A   Clear
9:50 AM 44.6 °F 39.7 °F 35.6 °F 71% 30.42 in - SE 9.2 mph - N/A   Clear
10:20 AM 46.4 °F 41.5 °F 35.6 °F 66% 30.42 in - SE 10.4 mph - N/A   Clear
10:50 AM 48.2 °F - 35.6 °F 62% 30.42 in - SSE 10.4 mph - N/A   Clear
11:00 AM 47 °F - 35 °F 53% 30.42 in 16 mi SSE 8.9 mph - -   Clear
11:20 AM 48.2 °F - 33.8 °F 58% 30.39 in - SE 6.9 mph - N/A   Clear
11:50 AM 50.0 °F - 33.8 °F 54% 30.39 in - SE 5.8 mph - N/A   Clear
12:00 PM 50 °F - 35 °F 43% 30.40 in 19 mi South 4.5 mph - -   Clear
12:20 PM 51.8 °F - 32.0 °F 47% 30.39 in - South 4.6 mph - N/A   Clear
12:50 PM 51.8 °F - 33.8 °F 50% 30.36 in - SSE 4.6 mph - N/A   Clear
1:00 PM 51 °F - 33 °F 37% 30.38 in 19 mi South 4.5 mph - -   Clear
1:20 PM 53.6 °F - 33.8 °F 47% 30.36 in - SSW 2.3 mph - N/A   Clear
1:50 PM 53.6 °F - 33.8 °F 47% 30.36 in - WNW 3.5 mph - N/A   Clear
2:00 PM 52 °F - 33 °F 37% 30.36 in 16 mi West 2.2 mph - -   Clear
2:20 PM 53.6 °F - 35.6 °F 51% 30.33 in - West 4.6 mph - N/A   Clear
2:50 PM 53.6 °F - 35.6 °F 51% 30.33 in - West 2.3 mph - N/A   Clear
3:00 PM 53 °F - 35 °F 38% 30.35 in 16 mi North 2.2 mph - -   Clear
3:20 PM 53.6 °F - 35.6 °F 51% 30.33 in - Variable 1.2 mph - N/A   Clear
3:50 PM 53.6 °F - 37.4 °F 54% 30.33 in - SSW 2.3 mph - N/A   Clear
4:20 PM 51.8 °F - 35.6 °F 54% 30.30 in - SW 1.2 mph - N/A   Clear
4:50 PM 48.2 °F - 35.6 °F 62% 30.30 in - WSW 3.5 mph - N/A   Clear
5:00 PM 45 °F - 37 °F 64% 30.33 in 16 mi West 2.2 mph - -   Clear
5:20 PM 44.6 °F - 35.6 °F 71% 30.30 in - West 1.2 mph - N/A   Clear
5:50 PM 44.6 °F 38.4 °F 37.4 °F 76% 30.33 in - SSE 12.7 mph - N/A   Clear
6:00 PM 44 °F - 38 °F 73% 30.33 in 16 mi South 11.2 mph - -  
6:20 PM 42.8 °F 38.6 °F 37.4 °F 81% 30.33 in - South 6.9 mph - N/A   Clear
6:50 PM 41.0 °F 34.3 °F 35.6 °F 81% 30.33 in - South 11.5 mph - N/A   Clear
7:00 PM 40 °F - 36 °F 82% 30.35 in 14 mi South 11.2 mph - -  
7:20 PM 39.2 °F 33.0 °F 35.6 °F 87% 30.33 in - South 9.2 mph - N/A   Clear
7:50 PM 39.2 °F 33.6 °F 35.6 °F 87% 30.33 in - SSE 8.1 mph - N/A   Clear
8:00 PM 39 °F - 36 °F 84% 30.34 in 12 mi SSE 6.7 mph - -  
8:20 PM 39.2 °F 34.2 °F 35.6 °F 87% 30.33 in - SSE 6.9 mph - N/A   Clear
8:50 PM 39.2 °F 32.5 °F 35.6 °F 87% 30.30 in - SSE 10.4 mph - N/A   Clear
9:00 PM 39 °F - 36 °F 85% 30.32 in 12 mi SSE 11.2 mph - -  
9:20 PM 39.2 °F 33.6 °F 35.6 °F 87% 30.30 in - SSE 8.1 mph - N/A   Clear
9:50 PM 39.2 °F 35.9 °F 35.6 °F 87% 30.30 in 6.2 mi SE 4.6 mph - N/A   Scattered Clouds
10:20 PM 41.0 °F 39.0 °F 35.6 °F 81% 30.30 in 6.2 mi SE 3.5 mph - N/A   Mostly Cloudy
10:50 PM 41.0 °F 38.0 °F 37.4 °F 87% 30.30 in 6.2 mi SE 4.6 mph - N/A   Overcast
11:00 PM 41 °F - 38 °F 84% 30.32 in 9 mi SE 4.5 mph - -   Overcast
11:20 PM 41.0 °F 37.1 °F 37.4 °F 87% 30.30 in 6.2 mi SSE 5.8 mph - N/A   Overcast
11:50 PM 41.0 °F 36.4 °F 37.4 °F 87% 30.30 in 6.2 mi SSE 6.9 mph - N/A   Overcast